Time,TemperatureF,DewpointF,PressureIn,WindDirection,WindDirectionDegrees,WindSpeedMPH,WindSpeedGustMPH,Humidity,HourlyPrecipIn,Conditions,Clouds,dailyrainin,SoftwareType,DateUTC
2013-02-25 00:00:00,25.9,14.3,30.14,SSW,205,0.0,0.0,61,0.00,,---,0.00,VWS V13.01,2013-02-25 05:00:00,
2013-02-25 00:05:00,25.9,14.7,30.14,SSW,205,0.0,0.0,62,0.00,,---,0.00,VWS V13.01,2013-02-25 05:05:00,
2013-02-25 00:10:00,26.2,15.0,30.14,SSW,205,0.0,0.0,62,0.00,,---,0.00,VWS V13.01,2013-02-25 05:10:00,
2013-02-25 00:15:00,26.4,15.6,30.14,SSW,205,0.0,0.0,63,0.00,,---,0.00,VWS V13.01,2013-02-25 05:15:00,
2013-02-25 00:20:00,26.1,14.8,30.14,SSW,205,0.0,0.0,62,0.00,,---,0.00,VWS V13.01,2013-02-25 05:20:00,
2013-02-25 00:26:00,25.9,14.7,30.14,SSW,205,0.0,0.0,62,0.00,,---,0.00,VWS V13.01,2013-02-25 05:26:00,
2013-02-25 00:31:00,25.7,14.5,30.14,SSW,205,0.0,0.0,62,0.00,,---,0.00,VWS V13.01,2013-02-25 05:31:00,
2013-02-25 00:36:00,25.7,14.9,30.14,SSW,205,0.0,0.0,63,0.00,,---,0.00,VWS V13.01,2013-02-25 05:36:00,
2013-02-25 00:41:00,25.5,14.7,30.14,SSW,205,0.0,0.0,63,0.00,,---,0.00,VWS V13.01,2013-02-25 05:41:00,
2013-02-25 00:46:00,25.5,14.7,30.14,SSW,205,0.0,0.0,63,0.00,,---,0.00,VWS V13.01,2013-02-25 05:46:00,
2013-02-25 00:51:00,25.7,14.9,30.14,SSW,205,0.0,0.0,63,0.00,,---,0.00,VWS V13.01,2013-02-25 05:51:00,
2013-02-25 00:56:00,25.9,15.0,30.14,SSW,205,0.0,0.0,63,0.00,,---,0.00,VWS V13.01,2013-02-25 05:56:00,
2013-02-25 01:01:00,25.9,15.0,30.14,SSW,205,0.0,0.0,63,0.00,,---,0.00,VWS V13.01,2013-02-25 06:01:00,
2013-02-25 01:06:00,25.3,14.5,30.14,SSW,205,0.0,0.0,63,0.00,,---,0.00,VWS V13.01,2013-02-25 06:06:00,
2013-02-25 01:11:00,25.2,14.4,30.14,SSW,205,0.0,0.0,63,0.00,,---,0.00,VWS V13.01,2013-02-25 06:11:00,
2013-02-25 01:16:00,24.8,14.0,30.14,SSW,205,0.0,0.0,63,0.00,,---,0.00,VWS V13.01,2013-02-25 06:16:00,
2013-02-25 01:21:00,24.8,14.0,30.14,SSW,205,0.0,0.0,63,0.00,,---,0.00,VWS V13.01,2013-02-25 06:21:00,
2013-02-25 01:26:00,25.0,14.2,30.14,SSW,205,0.0,0.0,63,0.00,,---,0.00,VWS V13.01,2013-02-25 06:26:00,
2013-02-25 01:31:00,24.8,14.0,30.14,SSW,205,0.0,0.0,63,0.00,,---,0.00,VWS V13.01,2013-02-25 06:31:00,
2013-02-25 01:36:00,24.6,13.8,30.14,SSW,205,0.0,0.0,63,0.00,,---,0.00,VWS V13.01,2013-02-25 06:36:00,
2013-02-25 01:41:00,24.3,13.5,30.14,SSW,205,0.0,0.0,63,0.00,,---,0.00,VWS V13.01,2013-02-25 06:41:00,
2013-02-25 01:46:00,24.4,13.7,30.14,SSW,205,0.0,0.0,63,0.00,,---,0.00,VWS V13.01,2013-02-25 06:46:00,
2013-02-25 01:51:00,24.6,14.2,30.14,SSW,205,0.0,0.0,64,0.00,,---,0.00,VWS V13.01,2013-02-25 06:51:00,
2013-02-25 01:56:00,24.6,14.2,30.14,SSW,205,0.0,0.0,64,0.00,,---,0.00,VWS V13.01,2013-02-25 06:56:00,
2013-02-25 02:01:00,24.8,14.4,30.14,SSW,205,0.0,0.0,64,0.00,,---,0.00,VWS V13.01,2013-02-25 07:01:00,
2013-02-25 02:06:00,25.0,14.5,30.14,SSW,205,0.0,0.0,64,0.00,,---,0.00,VWS V13.01,2013-02-25 07:06:00,
2013-02-25 02:11:00,24.8,14.4,30.14,SSW,205,0.0,0.0,64,0.00,,---,0.00,VWS V13.01,2013-02-25 07:11:00,
2013-02-25 02:16:00,24.6,14.2,30.14,SSW,205,0.0,0.0,64,0.00,,---,0.00,VWS V13.01,2013-02-25 07:16:00,
2013-02-25 02:21:00,24.6,14.2,30.14,SSW,205,0.0,0.0,64,0.00,,---,0.00,VWS V13.01,2013-02-25 07:21:00,
2013-02-25 02:26:00,24.6,14.2,30.14,SSW,205,0.0,0.0,64,0.00,,---,0.00,VWS V13.01,2013-02-25 07:26:00,
2013-02-25 02:31:00,24.6,14.2,30.14,SSW,205,0.0,0.0,64,0.00,,---,0.00,VWS V13.01,2013-02-25 07:31:00,
2013-02-25 02:36:00,24.6,14.2,30.14,SSW,205,0.0,0.0,64,0.00,,---,0.00,VWS V13.01,2013-02-25 07:36:00,
2013-02-25 02:41:00,24.6,14.6,30.14,SSW,205,0.0,0.0,65,0.00,,---,0.00,VWS V13.01,2013-02-25 07:41:00,
2013-02-25 02:46:00,24.6,14.6,30.14,SSW,205,0.0,0.0,65,0.00,,---,0.00,VWS V13.01,2013-02-25 07:46:00,
2013-02-25 02:51:00,24.4,14.4,30.14,SSW,205,0.0,0.0,65,0.00,,---,0.00,VWS V13.01,2013-02-25 07:51:00,
2013-02-25 02:56:00,24.4,14.4,30.14,SSW,205,0.0,0.0,65,0.00,,---,0.00,VWS V13.01,2013-02-25 07:56:00,
2013-02-25 03:01:00,24.3,14.2,30.14,SSW,205,0.0,0.0,65,0.00,,---,0.00,VWS V13.01,2013-02-25 08:01:00,
2013-02-25 03:06:00,24.3,14.2,30.14,SSW,205,0.0,0.0,65,0.00,,---,0.00,VWS V13.01,2013-02-25 08:06:00,
2013-02-25 03:11:00,24.3,14.2,30.14,SSW,205,0.0,0.0,65,0.00,,---,0.00,VWS V13.01,2013-02-25 08:11:00,
2013-02-25 03:16:00,24.4,14.4,30.14,SSW,205,0.0,0.0,65,0.00,,---,0.00,VWS V13.01,2013-02-25 08:16:00,
2013-02-25 03:21:00,24.6,14.9,30.14,SSW,205,0.0,0.0,66,0.00,,---,0.00,VWS V13.01,2013-02-25 08:21:00,
2013-02-25 03:26:00,24.6,14.9,30.14,SSW,205,0.0,0.0,66,0.00,,---,0.00,VWS V13.01,2013-02-25 08:26:00,
2013-02-25 03:31:00,24.4,14.4,30.14,SSW,205,0.0,0.0,65,0.00,,---,0.00,VWS V13.01,2013-02-25 08:31:00,
2013-02-25 03:36:00,24.3,14.2,30.14,SSW,205,0.0,0.0,65,0.00,,---,0.00,VWS V13.01,2013-02-25 08:36:00,
2013-02-25 03:41:00,24.3,14.2,30.14,SSW,205,0.0,0.0,65,0.00,,---,0.00,VWS V13.01,2013-02-25 08:41:00,
2013-02-25 03:46:00,24.3,14.2,30.14,SSW,205,0.0,0.0,65,0.00,,---,0.00,VWS V13.01,2013-02-25 08:46:00,
2013-02-25 03:51:00,24.3,14.2,30.14,SSW,205,0.0,0.0,65,0.00,,---,0.00,VWS V13.01,2013-02-25 08:51:00,
2013-02-25 03:56:00,24.6,14.6,30.14,SSW,205,0.0,0.0,65,0.00,,---,0.00,VWS V13.01,2013-02-25 08:56:00,
2013-02-25 04:01:00,24.8,15.1,30.14,SSW,205,0.0,0.0,66,0.00,,---,0.00,VWS V13.01,2013-02-25 09:01:00,
2013-02-25 04:06:00,25.2,15.4,30.14,SSW,205,0.0,0.0,66,0.00,,---,0.00,VWS V13.01,2013-02-25 09:06:00,
2013-02-25 04:11:00,25.2,15.4,30.14,SSW,205,0.0,0.0,66,0.00,,---,0.00,VWS V13.01,2013-02-25 09:11:00,
2013-02-25 04:16:00,25.2,15.1,30.14,SSW,205,0.0,0.0,65,0.00,,---,0.00,VWS V13.01,2013-02-25 09:16:00,
2013-02-25 04:21:00,25.0,14.9,30.14,SSW,205,0.0,0.0,65,0.00,,---,0.00,VWS V13.01,2013-02-25 09:21:00,
2013-02-25 04:26:00,25.0,14.5,30.14,SSW,205,0.0,0.0,64,0.00,,---,0.00,VWS V13.01,2013-02-25 09:26:00,
2013-02-25 04:31:00,24.8,14.4,30.14,SSW,205,0.0,0.0,64,0.00,,---,0.00,VWS V13.01,2013-02-25 09:31:00,
2013-02-25 04:36:00,24.8,14.4,30.14,SSW,205,0.0,0.0,64,0.00,,---,0.00,VWS V13.01,2013-02-25 09:36:00,
2013-02-25 04:41:00,25.0,14.5,30.14,SSW,205,0.0,0.0,64,0.00,,---,0.00,VWS V13.01,2013-02-25 09:41:00,
2013-02-25 04:46:00,25.0,14.5,30.14,SSW,205,0.0,0.0,64,0.00,,---,0.00,VWS V13.01,2013-02-25 09:46:00,
2013-02-25 04:51:00,25.0,14.2,30.14,SSW,205,0.0,0.0,63,0.00,,---,0.00,VWS V13.01,2013-02-25 09:51:00,
2013-02-25 04:56:00,25.3,14.5,30.14,SSW,205,0.0,0.0,63,0.00,,---,0.00,VWS V13.01,2013-02-25 09:56:00,
2013-02-25 05:01:00,25.2,14.4,30.14,SSW,205,0.0,0.0,63,0.00,,---,0.00,VWS V13.01,2013-02-25 10:01:00,
2013-02-25 05:06:00,25.0,13.8,30.14,SSW,205,0.0,0.0,62,0.00,,---,0.00,VWS V13.01,2013-02-25 10:06:00,
2013-02-25 05:11:00,25.0,13.4,30.14,SSW,205,0.0,0.0,61,0.00,,---,0.00,VWS V13.01,2013-02-25 10:11:00,
2013-02-25 05:16:00,25.0,13.4,30.14,SSW,205,0.0,0.0,61,0.00,,---,0.00,VWS V13.01,2013-02-25 10:16:00,
2013-02-25 05:21:00,24.8,12.9,30.14,SSW,205,0.0,0.0,60,0.00,,---,0.00,VWS V13.01,2013-02-25 10:21:00,
2013-02-25 05:26:00,25.0,13.1,30.14,SSW,205,0.0,0.0,60,0.00,,---,0.00,VWS V13.01,2013-02-25 10:26:00,
2013-02-25 05:31:00,25.3,13.4,30.14,SSW,205,0.0,0.0,60,0.00,,---,0.00,VWS V13.01,2013-02-25 10:31:00,
2013-02-25 05:36:00,25.5,14.0,30.14,SSW,205,0.0,0.0,61,0.00,,---,0.00,VWS V13.01,2013-02-25 10:36:00,
2013-02-25 05:41:00,25.3,13.4,30.14,SSW,205,0.0,0.0,60,0.00,,---,0.00,VWS V13.01,2013-02-25 10:41:00,
2013-02-25 05:46:00,24.8,12.5,30.14,SSW,205,0.0,0.0,59,0.00,,---,0.00,VWS V13.01,2013-02-25 10:46:00,
2013-02-25 05:51:00,24.8,12.1,30.14,SSW,205,0.0,0.0,58,0.00,,---,0.00,VWS V13.01,2013-02-25 10:51:00,
2013-02-25 05:56:00,24.4,11.8,30.17,SSW,205,0.0,0.0,58,0.00,,---,0.00,VWS V13.01,2013-02-25 10:56:00,
2013-02-25 06:01:00,24.4,11.8,30.17,SSW,205,0.0,0.0,58,0.00,,---,0.00,VWS V13.01,2013-02-25 11:01:00,
2013-02-25 06:06:00,24.6,12.0,30.17,SSW,205,0.0,0.0,58,0.00,,---,0.00,VWS V13.01,2013-02-25 11:06:00,
2013-02-25 06:11:00,24.8,12.1,30.17,SSW,205,0.0,0.0,58,0.00,,---,0.00,VWS V13.01,2013-02-25 11:11:00,
2013-02-25 06:16:00,24.6,12.0,30.17,SSW,205,0.0,0.0,58,0.00,,---,0.00,VWS V13.01,2013-02-25 11:16:00,
2013-02-25 06:21:00,24.4,11.4,30.17,SSW,205,0.0,0.0,57,0.00,,---,0.00,VWS V13.01,2013-02-25 11:21:00,
2013-02-25 06:26:00,24.4,11.4,30.17,SSW,205,0.0,0.0,57,0.00,,---,0.00,VWS V13.01,2013-02-25 11:26:00,
2013-02-25 06:31:00,24.4,11.4,30.17,SSW,205,0.0,0.0,57,0.00,,---,0.00,VWS V13.01,2013-02-25 11:31:00,
2013-02-25 06:36:00,24.6,11.6,30.17,SSW,205,0.0,0.0,57,0.00,,---,0.00,VWS V13.01,2013-02-25 11:36:00,
2013-02-25 06:41:00,24.4,11.4,30.17,SSW,205,0.0,0.0,57,0.00,,---,0.00,VWS V13.01,2013-02-25 11:41:00,
2013-02-25 06:46:00,24.4,11.4,30.17,SSW,205,0.0,0.0,57,0.00,,---,0.00,VWS V13.01,2013-02-25 11:46:00,
2013-02-25 06:51:00,24.6,11.6,30.17,SSW,205,0.0,0.0,57,0.00,,---,0.00,VWS V13.01,2013-02-25 11:51:00,
2013-02-25 06:56:00,24.4,11.4,30.17,SSW,205,0.0,0.0,57,0.00,,---,0.00,VWS V13.01,2013-02-25 11:56:00,
2013-02-25 07:01:00,24.1,11.1,30.17,SSW,205,0.0,0.0,57,0.00,,---,0.00,VWS V13.01,2013-02-25 12:01:00,
2013-02-25 07:06:00,23.9,10.9,30.17,SSW,205,0.0,0.0,57,0.00,,---,0.00,VWS V13.01,2013-02-25 12:06:00,
2013-02-25 07:11:00,23.9,10.5,30.17,SSW,205,0.0,0.0,56,0.00,,---,0.00,VWS V13.01,2013-02-25 12:11:00,
2013-02-25 07:16:00,24.1,11.1,30.17,SSW,205,0.0,0.0,57,0.00,,---,0.00,VWS V13.01,2013-02-25 12:16:00,
2013-02-25 07:21:00,24.3,11.2,30.17,SSW,205,0.0,0.0,57,0.00,,---,0.00,VWS V13.01,2013-02-25 12:21:00,
2013-02-25 07:26:00,24.3,11.2,30.17,SSW,205,0.0,0.0,57,0.00,,---,0.00,VWS V13.01,2013-02-25 12:26:00,
2013-02-25 07:31:00,24.4,11.4,30.17,SSW,205,0.0,0.0,57,0.00,,---,0.00,VWS V13.01,2013-02-25 12:31:00,
2013-02-25 07:36:00,24.1,11.1,30.17,SSW,205,0.0,0.0,57,0.00,,---,0.00,VWS V13.01,2013-02-25 12:36:00,
2013-02-25 07:41:00,24.1,10.7,30.17,SSW,205,0.0,0.0,56,0.00,,---,0.00,VWS V13.01,2013-02-25 12:41:00,
2013-02-25 07:46:00,24.4,11.4,30.17,SSW,205,0.0,0.0,57,0.00,,---,0.00,VWS V13.01,2013-02-25 12:46:00,
2013-02-25 07:51:00,24.6,11.6,30.17,SSW,205,0.0,0.0,57,0.00,,---,0.00,VWS V13.01,2013-02-25 12:51:00,
2013-02-25 07:57:00,24.6,11.6,30.17,SSW,205,0.0,0.0,57,0.00,,---,0.00,VWS V13.01,2013-02-25 12:57:00,
2013-02-25 08:02:00,25.0,11.9,30.17,SSW,205,0.0,0.0,57,0.00,,---,0.00,VWS V13.01,2013-02-25 13:02:00,
2013-02-25 08:07:00,25.5,12.8,30.17,SSW,205,0.0,0.0,58,0.00,,---,0.00,VWS V13.01,2013-02-25 13:07:00,
2013-02-25 08:12:00,25.9,13.1,30.20,SSW,205,0.0,0.0,58,0.00,,---,0.00,VWS V13.01,2013-02-25 13:12:00,
2013-02-25 08:17:00,26.2,13.5,30.20,SSW,205,0.0,0.0,58,0.00,,---,0.00,VWS V13.01,2013-02-25 13:17:00,
2013-02-25 08:22:00,26.6,13.8,30.20,SSW,205,0.0,0.0,58,0.00,,---,0.00,VWS V13.01,2013-02-25 13:22:00,
2013-02-25 08:27:00,27.1,14.3,30.20,SSW,205,0.0,0.0,58,0.00,,---,0.00,VWS V13.01,2013-02-25 13:27:00,
2013-02-25 08:32:00,27.5,14.7,30.20,SSW,205,0.0,0.0,58,0.00,,---,0.00,VWS V13.01,2013-02-25 13:32:00,
2013-02-25 08:37:00,27.9,15.0,30.20,SSW,205,0.0,0.0,58,0.00,,---,0.00,VWS V13.01,2013-02-25 13:37:00,
2013-02-25 08:42:00,28.2,15.4,30.17,SSW,205,0.0,0.0,58,0.00,,---,0.00,VWS V13.01,2013-02-25 13:42:00,
2013-02-25 08:47:00,28.8,16.2,30.17,SSW,205,3.1,4.0,59,0.00,,---,0.00,VWS V13.01,2013-02-25 13:47:00,
2013-02-25 08:52:00,29.5,16.9,30.17,SSW,205,0.0,0.0,59,0.00,,---,0.00,VWS V13.01,2013-02-25 13:52:00,
2013-02-25 08:57:00,30.0,17.4,30.17,SSW,205,2.7,4.0,59,0.00,,---,0.00,VWS V13.01,2013-02-25 13:57:00,
2013-02-25 09:02:00,30.4,17.4,30.17,SSW,205,2.7,3.6,58,0.00,,---,0.00,VWS V13.01,2013-02-25 14:02:00,
2013-02-25 09:07:00,30.7,17.7,30.17,SSW,205,0.0,0.0,58,0.00,,---,0.00,VWS V13.01,2013-02-25 14:07:00,
2013-02-25 09:12:00,31.3,18.2,30.17,SSW,205,0.0,3.1,58,0.00,,---,0.00,VWS V13.01,2013-02-25 14:12:00,
2013-02-25 09:18:00,31.6,18.6,30.17,SSW,205,2.7,3.1,58,0.00,,---,0.00,VWS V13.01,2013-02-25 14:18:00,
2013-02-25 09:23:00,32.0,18.5,30.17,SSW,205,0.0,4.0,57,0.00,,---,0.00,VWS V13.01,2013-02-25 14:23:00,
2013-02-25 09:28:00,32.2,18.7,30.17,SSW,205,0.0,0.0,57,0.00,,---,0.00,VWS V13.01,2013-02-25 14:28:00,
2013-02-25 09:33:00,32.5,19.0,30.17,SSW,205,0.0,0.0,57,0.00,,---,0.00,VWS V13.01,2013-02-25 14:33:00,
2013-02-25 09:38:00,32.9,18.9,30.17,SSW,205,0.0,0.0,56,0.00,,---,0.00,VWS V13.01,2013-02-25 14:38:00,
2013-02-25 09:43:00,33.3,18.9,30.17,SSW,205,3.6,3.6,55,0.00,,---,0.00,VWS V13.01,2013-02-25 14:43:00,
2013-02-25 09:48:00,33.6,19.2,30.17,SSW,205,3.1,4.5,55,0.00,,---,0.00,VWS V13.01,2013-02-25 14:48:00,
2013-02-25 09:53:00,34.5,20.0,30.17,ENE,57,0.0,4.0,55,0.00,,---,0.00,VWS V13.01,2013-02-25 14:53:00,
2013-02-25 09:58:00,34.9,19.9,30.17,ENE,58,4.5,4.5,54,0.00,,---,0.00,VWS V13.01,2013-02-25 14:58:00,
2013-02-25 10:03:00,35.4,20.0,30.17,ENE,57,4.9,5.8,53,0.00,,---,0.00,VWS V13.01,2013-02-25 15:03:00,
2013-02-25 10:08:00,36.0,20.5,30.17,North,2,2.7,5.4,53,0.00,,---,0.00,VWS V13.01,2013-02-25 15:08:00,
2013-02-25 10:13:00,36.7,21.2,30.17,North,0,4.0,4.5,53,0.00,,---,0.00,VWS V13.01,2013-02-25 15:13:00,
2013-02-25 10:18:00,37.4,21.4,30.17,North,0,3.6,3.6,52,0.00,,---,0.00,VWS V13.01,2013-02-25 15:18:00,
2013-02-25 10:23:00,38.1,21.6,30.17,North,3,2.7,2.7,51,0.00,,---,0.00,VWS V13.01,2013-02-25 15:23:00,
2013-02-25 10:28:00,38.7,21.2,30.17,ENE,64,0.0,4.9,49,0.00,,---,0.00,VWS V13.01,2013-02-25 15:28:00,
2013-02-25 10:33:00,39.4,21.8,30.17,ENE,64,0.0,0.0,49,0.00,,---,0.00,VWS V13.01,2013-02-25 15:33:00,
2013-02-25 10:38:00,40.3,22.2,30.17,ENE,65,0.0,5.4,48,0.00,,---,0.00,VWS V13.01,2013-02-25 15:38:00,
2013-02-25 10:43:00,41.0,22.3,30.17,ENE,57,0.0,3.1,47,0.00,,---,0.00,VWS V13.01,2013-02-25 15:43:00,
2013-02-25 10:48:00,41.7,22.5,30.17,NE,52,5.4,5.4,46,0.00,,---,0.00,VWS V13.01,2013-02-25 15:48:00,
2013-02-25 10:53:00,42.1,20.7,30.17,ENE,65,4.5,4.5,42,0.00,,---,0.00,VWS V13.01,2013-02-25 15:53:00,
2013-02-25 10:58:00,42.4,19.8,30.17,ESE,103,5.4,5.8,40,0.00,,---,0.00,VWS V13.01,2013-02-25 15:58:00,
2013-02-25 11:03:00,42.6,20.0,30.17,East,92,4.5,4.9,40,0.00,,---,0.00,VWS V13.01,2013-02-25 16:03:00,
2013-02-25 11:08:00,43.2,20.5,30.17,NE,49,5.8,5.8,40,0.00,,---,0.00,VWS V13.01,2013-02-25 16:08:00,
2013-02-25 11:13:00,43.7,20.4,30.17,East,89,4.9,4.9,39,0.00,,---,0.00,VWS V13.01,2013-02-25 16:13:00,
2013-02-25 11:18:00,44.1,20.7,30.17,NE,49,3.1,3.1,39,0.00,,---,0.00,VWS V13.01,2013-02-25 16:18:00,
2013-02-25 11:23:00,44.6,20.6,30.17,East,83,4.9,4.9,38,0.00,,---,0.00,VWS V13.01,2013-02-25 16:23:00,
2013-02-25 11:28:00,45.0,20.3,30.17,ENE,60,7.4,7.4,37,0.00,,---,0.00,VWS V13.01,2013-02-25 16:28:00,
2013-02-25 11:33:00,45.1,20.4,30.17,ENE,70,7.4,7.8,37,0.00,,---,0.00,VWS V13.01,2013-02-25 16:33:00,
2013-02-25 11:38:00,45.7,20.9,30.17,ENE,66,3.1,4.0,37,0.00,,---,0.00,VWS V13.01,2013-02-25 16:38:00,
2013-02-25 11:43:00,46.2,21.4,30.17,NE,51,5.8,6.3,37,0.00,,---,0.00,VWS V13.01,2013-02-25 16:43:00,
2013-02-25 11:48:00,46.6,19.7,30.17,East,101,6.3,6.3,34,0.00,,---,0.00,VWS V13.01,2013-02-25 16:48:00,
2013-02-25 11:53:00,46.8,19.9,30.17,NNE,17,4.9,6.3,34,0.00,,---,0.00,VWS V13.01,2013-02-25 16:53:00,
2013-02-25 11:58:00,47.1,19.5,30.17,East,86,5.4,6.3,33,0.00,,---,0.00,VWS V13.01,2013-02-25 16:58:00,
2013-02-25 12:03:00,47.1,19.5,30.17,ENE,77,5.8,5.8,33,0.00,,---,0.00,VWS V13.01,2013-02-25 17:03:00,
2013-02-25 12:08:00,47.5,19.8,30.17,NE,55,4.5,6.3,33,0.00,,---,0.00,VWS V13.01,2013-02-25 17:08:00,
2013-02-25 12:13:00,47.7,20.0,30.14,East,101,4.9,4.9,33,0.00,,---,0.00,VWS V13.01,2013-02-25 17:13:00,
2013-02-25 12:18:00,47.8,19.4,30.14,NNE,22,4.9,4.9,32,0.00,,---,0.00,VWS V13.01,2013-02-25 17:18:00,
2013-02-25 12:23:00,48.6,21.5,30.14,ENE,70,3.6,5.4,34,0.00,,---,0.00,VWS V13.01,2013-02-25 17:23:00,
2013-02-25 12:28:00,49.1,20.5,30.14,North,356,3.6,3.6,32,0.00,,---,0.00,VWS V13.01,2013-02-25 17:28:00,
2013-02-25 12:33:00,49.5,19.3,30.14,East,89,6.3,6.3,30,0.00,,---,0.00,VWS V13.01,2013-02-25 17:33:00,
2013-02-25 12:38:00,49.1,19.0,30.14,ENE,65,5.8,5.8,30,0.00,,---,0.00,VWS V13.01,2013-02-25 17:38:00,
2013-02-25 12:43:00,49.5,19.3,30.14,NE,45,4.5,6.3,30,0.00,,---,0.00,VWS V13.01,2013-02-25 17:43:00,
2013-02-25 12:48:00,50.0,20.6,30.14,NE,53,5.8,7.4,31,0.00,,---,0.00,VWS V13.01,2013-02-25 17:48:00,
2013-02-25 12:53:00,50.4,20.1,30.11,North,356,4.0,5.8,30,0.00,,---,0.00,VWS V13.01,2013-02-25 17:53:00,
2013-02-25 12:58:00,51.3,20.9,30.11,NNE,21,4.0,5.4,30,0.00,,---,0.00,VWS V13.01,2013-02-25 17:58:00,
2013-02-25 13:03:00,51.3,20.1,30.11,NNW,347,4.9,7.8,29,0.00,,---,0.00,VWS V13.01,2013-02-25 18:03:00,
2013-02-25 13:08:00,51.6,20.4,30.11,ENE,70,6.9,8.3,29,0.00,,---,0.00,VWS V13.01,2013-02-25 18:08:00,
2013-02-25 13:13:00,51.8,20.6,30.11,SSE,151,3.6,4.9,29,0.00,,---,0.00,VWS V13.01,2013-02-25 18:13:00,
2013-02-25 13:18:00,52.2,20.1,30.11,NE,35,3.6,4.9,28,0.00,,---,0.00,VWS V13.01,2013-02-25 18:18:00,
2013-02-25 13:23:00,52.2,20.1,30.14,East,83,4.5,4.9,28,0.00,,---,0.00,VWS V13.01,2013-02-25 18:23:00,
2013-02-25 13:28:00,52.2,20.1,30.14,ESE,104,4.9,6.7,28,0.00,,---,0.00,VWS V13.01,2013-02-25 18:28:00,
2013-02-25 13:33:00,52.2,20.1,30.14,ENE,78,5.8,6.7,28,0.00,,---,0.00,VWS V13.01,2013-02-25 18:33:00,
2013-02-25 13:38:00,51.6,18.8,30.14,East,83,5.8,5.8,27,0.00,,---,0.00,VWS V13.01,2013-02-25 18:38:00,
2013-02-25 13:43:00,51.6,19.6,30.14,North,6,2.7,4.5,28,0.00,,---,0.00,VWS V13.01,2013-02-25 18:43:00,
2013-02-25 13:48:00,52.7,20.5,30.14,ENE,58,4.5,5.4,28,0.00,,---,0.00,VWS V13.01,2013-02-25 18:48:00,
2013-02-25 13:53:00,53.2,20.1,30.11,ENE,62,4.0,4.9,27,0.00,,---,0.00,VWS V13.01,2013-02-25 18:53:00,
2013-02-25 13:58:00,53.2,20.1,30.11,SE,144,0.0,0.0,27,0.00,,---,0.00,VWS V13.01,2013-02-25 18:58:00,
2013-02-25 14:03:00,53.6,20.5,30.11,NE,53,4.0,6.9,27,0.00,,---,0.00,VWS V13.01,2013-02-25 19:03:00,
2013-02-25 14:08:00,54.0,20.8,30.11,ENE,74,5.8,7.8,27,0.00,,---,0.00,VWS V13.01,2013-02-25 19:08:00,
2013-02-25 14:13:00,54.1,20.9,30.11,ENE,73,0.0,2.7,27,0.00,,---,0.00,VWS V13.01,2013-02-25 19:13:00,
2013-02-25 14:18:00,54.3,21.1,30.11,SE,126,3.6,4.0,27,0.00,,---,0.00,VWS V13.01,2013-02-25 19:18:00,
2013-02-25 14:24:00,54.1,20.9,30.11,NE,46,0.0,6.7,27,0.00,,---,0.00,VWS V13.01,2013-02-25 19:24:00,
2013-02-25 14:29:00,54.1,20.9,30.11,East,96,5.4,5.4,27,0.00,,---,0.00,VWS V13.01,2013-02-25 19:29:00,
2013-02-25 14:34:00,54.3,21.1,30.11,ENE,62,0.0,4.5,27,0.00,,---,0.00,VWS V13.01,2013-02-25 19:34:00,
2013-02-25 14:39:00,54.9,21.5,30.11,ENE,57,2.7,4.5,27,0.00,,---,0.00,VWS V13.01,2013-02-25 19:39:00,
2013-02-25 14:44:00,55.4,22.0,30.11,NE,35,3.6,7.8,27,0.00,,---,0.00,VWS V13.01,2013-02-25 19:44:00,
2013-02-25 14:49:00,55.4,21.1,30.11,SE,145,4.0,4.9,26,0.00,,---,0.00,VWS V13.01,2013-02-25 19:49:00,
2013-02-25 14:54:00,54.9,20.6,30.11,East,84,4.0,6.7,26,0.00,,---,0.00,VWS V13.01,2013-02-25 19:54:00,
2013-02-25 14:59:00,54.7,20.5,30.11,North,351,4.0,6.9,26,0.00,,---,0.00,VWS V13.01,2013-02-25 19:59:00,
2013-02-25 15:04:00,55.4,21.1,30.11,NE,54,5.4,5.4,26,0.00,,---,0.00,VWS V13.01,2013-02-25 20:04:00,
2013-02-25 15:09:00,55.2,21.0,30.08,East,87,4.9,5.8,26,0.00,,---,0.00,VWS V13.01,2013-02-25 20:09:00,
2013-02-25 15:14:00,55.0,20.8,30.08,NE,38,3.1,3.1,26,0.00,,---,0.00,VWS V13.01,2013-02-25 20:14:00,
2013-02-25 15:19:00,55.8,21.4,30.08,NNE,28,4.9,4.9,26,0.00,,---,0.00,VWS V13.01,2013-02-25 20:19:00,
2013-02-25 15:24:00,55.9,21.6,30.08,ENE,59,2.7,5.4,26,0.00,,---,0.00,VWS V13.01,2013-02-25 20:24:00,
2013-02-25 15:29:00,56.1,21.7,30.08,North,356,4.9,6.3,26,0.00,,---,0.00,VWS V13.01,2013-02-25 20:29:00,
2013-02-25 15:34:00,55.9,21.6,30.08,NE,44,4.9,5.8,26,0.00,,---,0.00,VWS V13.01,2013-02-25 20:34:00,
2013-02-25 15:39:00,56.1,21.7,30.08,East,92,5.8,5.8,26,0.00,,---,0.00,VWS V13.01,2013-02-25 20:39:00,
2013-02-25 15:44:00,55.8,21.4,30.08,NE,54,3.6,6.7,26,0.00,,---,0.00,VWS V13.01,2013-02-25 20:44:00,
2013-02-25 15:49:00,55.8,21.4,30.08,East,93,3.6,4.9,26,0.00,,---,0.00,VWS V13.01,2013-02-25 20:49:00,
2013-02-25 15:54:00,55.6,20.3,30.08,East,83,6.9,7.8,25,0.00,,---,0.00,VWS V13.01,2013-02-25 20:54:00,
2013-02-25 15:59:00,55.2,20.0,30.08,East,98,5.8,6.3,25,0.00,,---,0.00,VWS V13.01,2013-02-25 20:59:00,
2013-02-25 16:04:00,55.2,21.0,30.08,ESE,105,6.7,6.7,26,0.00,,---,0.00,VWS V13.01,2013-02-25 21:04:00,
2013-02-25 16:09:00,55.2,21.0,30.08,East,86,4.5,7.4,26,0.00,,---,0.00,VWS V13.01,2013-02-25 21:09:00,
2013-02-25 16:14:00,55.6,21.3,30.08,East,93,4.9,7.4,26,0.00,,---,0.00,VWS V13.01,2013-02-25 21:14:00,
2013-02-25 16:19:00,56.1,21.7,30.08,ENE,61,5.8,5.8,26,0.00,,---,0.00,VWS V13.01,2013-02-25 21:19:00,
2013-02-25 16:24:00,57.0,21.6,30.08,ENE,74,7.4,7.8,25,0.00,,---,0.00,VWS V13.01,2013-02-25 21:24:00,
2013-02-25 16:29:00,57.2,21.7,30.08,NE,56,4.9,5.4,25,0.00,,---,0.00,VWS V13.01,2013-02-25 21:29:00,
2013-02-25 16:34:00,58.1,22.5,30.08,ENE,61,4.5,5.4,25,0.00,,---,0.00,VWS V13.01,2013-02-25 21:34:00,
2013-02-25 16:39:00,59.7,23.9,30.08,ENE,75,5.4,5.4,25,0.00,,---,0.00,VWS V13.01,2013-02-25 21:39:00,
2013-02-25 16:44:00,61.5,24.4,30.08,ENE,65,5.4,5.8,24,0.00,,---,0.00,VWS V13.01,2013-02-25 21:44:00,
2013-02-25 16:49:00,62.4,24.2,30.08,NE,52,3.6,5.4,23,0.00,,---,0.00,VWS V13.01,2013-02-25 21:49:00,
2013-02-25 16:54:00,63.5,25.1,30.08,ENE,67,4.0,5.8,23,0.00,,---,0.00,VWS V13.01,2013-02-25 21:54:00,
2013-02-25 16:59:00,63.9,25.4,30.08,ENE,57,4.5,5.8,23,0.00,,---,0.00,VWS V13.01,2013-02-25 21:59:00,
2013-02-25 17:04:00,64.6,26.0,30.08,NE,54,3.6,6.7,23,0.00,,---,0.00,VWS V13.01,2013-02-25 22:04:00,
2013-02-25 17:09:00,65.5,25.7,30.08,NNE,20,4.0,6.3,22,0.00,,---,0.00,VWS V13.01,2013-02-25 22:09:00,
2013-02-25 17:14:00,65.8,23.7,30.08,NE,39,4.0,6.7,20,0.00,,---,0.00,VWS V13.01,2013-02-25 22:14:00,
2013-02-25 17:19:00,65.8,23.7,30.08,ENE,65,4.0,5.4,20,0.00,,---,0.00,VWS V13.01,2013-02-25 22:19:00,
2013-02-25 17:24:00,65.5,23.4,30.08,NNE,16,4.0,5.4,20,0.00,,---,0.00,VWS V13.01,2013-02-25 22:24:00,
2013-02-25 17:29:00,65.1,23.1,30.08,NNW,341,3.6,4.0,20,0.00,,---,0.00,VWS V13.01,2013-02-25 22:29:00,
2013-02-25 17:34:00,64.6,22.6,30.08,NNE,26,4.0,4.9,20,0.00,,---,0.00,VWS V13.01,2013-02-25 22:34:00,
2013-02-25 17:39:00,63.9,22.0,30.08,NNE,30,4.5,4.5,20,0.00,,---,0.00,VWS V13.01,2013-02-25 22:39:00,
2013-02-25 17:44:00,61.5,21.2,30.08,NE,36,4.0,4.9,21,0.00,,---,0.00,VWS V13.01,2013-02-25 22:44:00,
2013-02-25 17:49:00,58.8,20.1,30.08,NNE,13,3.6,4.5,22,0.00,,---,0.00,VWS V13.01,2013-02-25 22:49:00,
2013-02-25 17:54:00,56.8,20.5,30.08,NNE,14,3.1,4.5,24,0.00,,---,0.00,VWS V13.01,2013-02-25 22:54:00,
2013-02-25 17:59:00,55.9,20.6,30.08,North,11,3.6,5.4,25,0.00,,---,0.00,VWS V13.01,2013-02-25 22:59:00,
2013-02-25 18:04:00,52.9,19.0,30.08,North,356,3.6,5.8,26,0.00,,---,0.00,VWS V13.01,2013-02-25 23:04:00,
2013-02-25 18:10:00,50.5,17.8,30.05,NNE,13,3.6,7.4,27,0.00,,---,0.00,VWS V13.01,2013-02-25 23:10:00,
2013-02-25 18:15:00,48.4,16.0,30.05,NNE,18,3.6,5.4,27,0.00,,---,0.00,VWS V13.01,2013-02-25 23:15:00,
2013-02-25 18:20:00,46.4,15.1,30.05,NNE,14,3.6,3.6,28,0.00,,---,0.00,VWS V13.01,2013-02-25 23:20:00,
2013-02-25 18:25:00,45.5,16.6,30.08,North,10,4.9,4.9,31,0.00,,---,0.00,VWS V13.01,2013-02-25 23:25:00,
2013-02-25 18:30:00,45.1,19.1,30.08,North,4,3.6,3.6,35,0.00,,---,0.00,VWS V13.01,2013-02-25 23:30:00,
2013-02-25 18:35:00,44.2,17.7,30.08,North,6,4.0,4.0,34,0.00,,---,0.00,VWS V13.01,2013-02-25 23:35:00,
2013-02-25 18:40:00,43.5,19.0,30.08,North,6,0.0,2.7,37,0.00,,---,0.00,VWS V13.01,2013-02-25 23:40:00,
2013-02-25 18:45:00,43.0,18.5,30.08,North,6,0.0,0.0,37,0.00,,---,0.00,VWS V13.01,2013-02-25 23:45:00,
2013-02-25 18:50:00,42.3,18.5,30.08,North,6,3.6,3.6,38,0.00,,---,0.00,VWS V13.01,2013-02-25 23:50:00,
2013-02-25 18:55:00,42.4,19.2,30.08,North,4,4.0,4.0,39,0.00,,---,0.00,VWS V13.01,2013-02-25 23:55:00,
2013-02-25 19:00:00,43.0,19.7,30.08,North,351,4.5,4.5,39,0.00,,---,0.00,VWS V13.01,2013-02-26 00:00:00,
2013-02-25 19:05:00,43.2,19.9,30.08,NNW,341,4.5,4.5,39,0.00,,---,0.00,VWS V13.01,2013-02-26 00:05:00,
2013-02-25 19:10:00,42.8,19.6,30.08,NNW,328,3.6,3.6,39,0.00,,---,0.00,VWS V13.01,2013-02-26 00:10:00,
2013-02-25 19:15:00,42.4,19.2,30.08,North,5,2.7,3.1,39,0.00,,---,0.00,VWS V13.01,2013-02-26 00:15:00,
2013-02-25 19:20:00,42.3,19.1,30.08,NNE,17,6.3,6.9,39,0.00,,---,0.00,VWS V13.01,2013-02-26 00:20:00,
2013-02-25 19:25:00,41.9,18.8,30.05,North,8,5.8,5.8,39,0.00,,---,0.00,VWS V13.01,2013-02-26 00:25:00,
2013-02-25 19:30:00,41.9,19.4,30.05,North,0,3.1,4.0,40,0.00,,---,0.00,VWS V13.01,2013-02-26 00:30:00,
2013-02-25 19:35:00,42.1,18.9,30.05,NNW,345,4.9,8.3,39,0.00,,---,0.00,VWS V13.01,2013-02-26 00:35:00,
2013-02-25 19:40:00,41.9,18.8,30.05,North,0,6.7,6.7,39,0.00,,---,0.00,VWS V13.01,2013-02-26 00:40:00,
2013-02-25 19:45:00,41.4,18.3,30.05,NNE,15,4.0,4.0,39,0.00,,---,0.00,VWS V13.01,2013-02-26 00:45:00,
2013-02-25 19:50:00,40.6,18.2,30.05,North,6,4.0,4.0,40,0.00,,---,0.00,VWS V13.01,2013-02-26 00:50:00,
2013-02-25 19:55:00,40.3,17.9,30.05,North,0,3.6,4.0,40,0.00,,---,0.00,VWS V13.01,2013-02-26 00:55:00,
2013-02-25 20:00:00,40.1,18.3,30.05,North,356,3.1,4.5,41,0.00,,---,0.00,VWS V13.01,2013-02-26 01:00:00,
2013-02-25 20:05:00,39.9,18.7,30.05,North,2,0.0,5.4,42,0.00,,---,0.00,VWS V13.01,2013-02-26 01:05:00,
2013-02-25 20:10:00,39.9,19.2,30.05,North,3,5.4,5.4,43,0.00,,---,0.00,VWS V13.01,2013-02-26 01:10:00,
2013-02-25 20:15:00,40.1,19.4,30.05,North,0,2.7,3.6,43,0.00,,---,0.00,VWS V13.01,2013-02-26 01:15:00,
2013-02-25 20:20:00,39.9,19.2,30.05,North,5,6.3,6.3,43,0.00,,---,0.00,VWS V13.01,2013-02-26 01:20:00,
2013-02-25 20:25:00,40.3,19.6,30.05,NNE,24,4.9,5.8,43,0.00,,---,0.00,VWS V13.01,2013-02-26 01:25:00,
2013-02-25 20:30:00,40.3,19.6,30.05,North,351,5.4,5.4,43,0.00,,---,0.00,VWS V13.01,2013-02-26 01:30:00,
2013-02-25 20:35:00,40.3,19.6,30.05,North,11,4.9,5.4,43,0.00,,---,0.00,VWS V13.01,2013-02-26 01:35:00,
2013-02-25 20:40:00,40.3,19.6,30.02,North,4,4.9,6.7,43,0.00,,---,0.00,VWS V13.01,2013-02-26 01:40:00,
2013-02-25 20:45:00,40.5,19.7,30.02,North,356,3.1,5.4,43,0.00,,---,0.00,VWS V13.01,2013-02-26 01:45:00,
2013-02-25 20:50:00,40.3,19.0,30.02,North,2,4.5,8.3,42,0.00,,---,0.00,VWS V13.01,2013-02-26 01:50:00,
2013-02-25 20:56:00,40.3,19.6,30.02,North,356,4.5,7.4,43,0.00,,---,0.00,VWS V13.01,2013-02-26 01:56:00,
2013-02-25 21:01:00,40.3,19.6,30.02,North,4,5.4,6.7,43,0.00,,---,0.00,VWS V13.01,2013-02-26 02:01:00,
2013-02-25 21:06:00,40.5,19.7,30.02,North,351,4.9,5.8,43,0.00,,---,0.00,VWS V13.01,2013-02-26 02:06:00,
2013-02-25 21:11:00,40.3,19.0,30.02,NNW,345,2.7,2.7,42,0.00,,---,0.00,VWS V13.01,2013-02-26 02:11:00,
2013-02-25 21:16:00,39.9,19.2,30.02,NNE,18,4.9,6.7,43,0.00,,---,0.00,VWS V13.01,2013-02-26 02:16:00,
2013-02-25 21:21:00,39.9,19.8,30.02,North,356,5.4,6.3,44,0.00,,---,0.00,VWS V13.01,2013-02-26 02:21:00,
2013-02-25 21:26:00,39.7,19.6,30.02,North,351,5.8,7.4,44,0.00,,---,0.00,VWS V13.01,2013-02-26 02:26:00,
2013-02-25 21:31:00,39.6,19.5,30.02,NNE,12,4.9,4.9,44,0.00,,---,0.00,VWS V13.01,2013-02-26 02:31:00,
2013-02-25 21:36:00,39.4,19.3,30.02,North,3,5.4,6.3,44,0.00,,---,0.00,VWS V13.01,2013-02-26 02:36:00,
2013-02-25 21:41:00,39.2,19.7,30.02,North,9,7.4,7.4,45,0.00,,---,0.00,VWS V13.01,2013-02-26 02:41:00,
2013-02-25 21:46:00,39.0,19.5,30.02,North,0,2.7,4.0,45,0.00,,---,0.00,VWS V13.01,2013-02-26 02:46:00,
2013-02-25 21:51:00,38.8,19.3,30.02,North,356,4.0,4.0,45,0.00,,---,0.00,VWS V13.01,2013-02-26 02:51:00,
2013-02-25 21:56:00,38.7,19.2,30.02,NNE,23,7.4,7.4,45,0.00,,---,0.00,VWS V13.01,2013-02-26 02:56:00,
2013-02-25 22:01:00,38.1,18.7,30.02,North,356,4.0,4.0,45,0.00,,---,0.00,VWS V13.01,2013-02-26 03:01:00,
2013-02-25 22:06:00,37.9,19.0,30.02,NNE,32,4.5,4.9,46,0.00,,---,0.00,VWS V13.01,2013-02-26 03:06:00,
2013-02-25 22:11:00,37.8,18.9,30.05,NE,51,4.5,4.5,46,0.00,,---,0.00,VWS V13.01,2013-02-26 03:11:00,
2013-02-25 22:16:00,37.6,19.2,30.05,ENE,67,2.7,6.3,47,0.00,,---,0.00,VWS V13.01,2013-02-26 03:16:00,
2013-02-25 22:21:00,37.4,19.5,30.05,ENE,57,4.0,6.9,48,0.00,,---,0.00,VWS V13.01,2013-02-26 03:21:00,
2013-02-25 22:26:00,37.0,19.2,30.05,NNE,23,4.5,4.9,48,0.00,,---,0.00,VWS V13.01,2013-02-26 03:26:00,
2013-02-25 22:31:00,36.9,19.5,30.05,ENE,61,3.6,4.0,49,0.00,,---,0.00,VWS V13.01,2013-02-26 03:31:00,
2013-02-25 22:36:00,36.9,20.0,30.05,North,10,3.6,3.6,50,0.00,,---,0.00,VWS V13.01,2013-02-26 03:36:00,
2013-02-25 22:41:00,37.0,20.1,30.05,North,0,0.0,2.7,50,0.00,,---,0.00,VWS V13.01,2013-02-26 03:41:00,
2013-02-25 22:46:00,36.9,20.0,30.05,North,7,2.7,4.9,50,0.00,,---,0.00,VWS V13.01,2013-02-26 03:46:00,
2013-02-25 22:51:00,36.7,19.8,30.05,NNW,347,2.7,2.7,50,0.00,,---,0.00,VWS V13.01,2013-02-26 03:51:00,
2013-02-25 22:56:00,36.5,19.6,30.05,North,351,0.0,0.0,50,0.00,,---,0.00,VWS V13.01,2013-02-26 03:56:00,
2013-02-25 23:01:00,36.1,19.3,30.05,ENE,61,0.0,0.0,50,0.00,,---,0.00,VWS V13.01,2013-02-26 04:01:00,
2013-02-25 23:06:00,36.1,19.3,30.05,NNE,25,0.0,3.1,50,0.00,,---,0.00,VWS V13.01,2013-02-26 04:06:00,
2013-02-25 23:11:00,35.8,19.4,30.05,NNE,33,2.7,3.1,51,0.00,,---,0.00,VWS V13.01,2013-02-26 04:11:00,
2013-02-25 23:16:00,36.0,20.1,30.05,North,11,3.6,5.4,52,0.00,,---,0.00,VWS V13.01,2013-02-26 04:16:00,
2013-02-25 23:21:00,36.0,20.1,30.05,North,8,0.0,0.0,52,0.00,,---,0.00,VWS V13.01,2013-02-26 04:21:00,
2013-02-25 23:26:00,35.8,19.4,30.05,North,7,2.7,4.9,51,0.00,,---,0.00,VWS V13.01,2013-02-26 04:26:00,
2013-02-25 23:31:00,35.6,19.7,30.05,North,6,0.0,4.0,52,0.00,,---,0.00,VWS V13.01,2013-02-26 04:31:00,
2013-02-25 23:36:00,35.6,19.7,30.05,North,356,3.6,5.4,52,0.00,,---,0.00,VWS V13.01,2013-02-26 04:36:00,
2013-02-25 23:41:00,35.6,19.3,30.05,NNW,344,4.0,4.9,51,0.00,,---,0.00,VWS V13.01,2013-02-26 04:41:00,
2013-02-25 23:46:00,35.4,19.1,30.05,North,351,4.0,6.7,51,0.00,,---,0.00,VWS V13.01,2013-02-26 04:46:00,
2013-02-25 23:51:00,35.6,19.3,30.05,North,10,4.5,7.4,51,0.00,,---,0.00,VWS V13.01,2013-02-26 04:51:00,
2013-02-25 23:56:00,35.4,18.6,30.02,NNE,13,4.9,4.9,50,0.00,,---,0.00,VWS V13.01,2013-02-26 04:56:00,